Weather History for KLAX - March, 2013

Change the Weather History Date:

Wednesday, March 20, 2013

  Actual Average Record
Temperature  
Mean Temperature 60 °F 58 °F  
Max Temperature 65 °F 64 °F 87 °F (1988)
Min Temperature 54 °F 52 °F 43 °F (1948)
Degree Days  
Heating Degree Days 5 7  
Month to date heating degree days 136 143  
Since 1 July heating degree days 1004 1072  
Cooling Degree Days 0 0  
Month to date cooling degree days 8 0  
Year to date cooling degree days 16 9  
Growing Degree Days 9 (Base 50)    
Moisture  
Dew Point 51 °F    
Average Humidity 76    
Maximum Humidity 89    
Minimum Humidity 63    
Precipitation  
Precipitation 0.00 in 0.05 in 2.36 in (2011)
Month to date precipitation 0.66 1.39  
Year to date precipitation 2.16 7.35  
Since 1 July precipitation 6.44  
Sea Level Pressure  
Sea Level Pressure 30.04 in    
Wind  
Wind Speed 6 mph (WSW)    
Max Wind Speed 16 mph    
Max Gust Speed 21 mph    
Visibility 8 miles    
Events      
T = Trace of Precipitation, MM = Missing Value Source: NWS Daily Summary

Daily Weather History Graph

Daily Weather History Graph

Search for Another Location

Airport or City:

Trip Planner

Search our weather history database for the weather conditions in past years. The results will help you decide how hot, cold, wet, or windy it might be!

Date:

Astronomy

Mar. 20, 2013 Rise Set
Actual Time 6:56 AM PDT 7:05 PM PDT
Civil Twilight 6:31 AM PDT 7:30 PM PDT
Nautical Twilight 6:02 AM PDT 7:59 PM PDT
Astronomical Twilight 5:33 AM PDT 8:29 PM PDT
Moon 12:59 PM PDT (3/20) 2:25 AM PDT (3/20)
Length of Visible Light 12h 58m
Length of Day
12h 08m
First Quarter, 60% of the Moon is Illuminated
Mar 20
First Quarter
Mar 27
Full
Apr 2
Last Quarter
Apr 10
New
Apr 18
First Quarter

Hourly Weather History & Observations

Time (PDT) Temp. Dew Point Humidity Pressure Visibility Wind Dir Wind Speed Gust Speed Precip Events Conditions
12:53 AM 57.0 °F 51.1 °F 81% 30.09 in 7.0 mi Calm Calm - N/A   Scattered Clouds
1:53 AM 57.0 °F 52.0 °F 83% 30.08 in 8.0 mi Calm Calm - N/A   Mostly Cloudy
2:53 AM 57.0 °F 51.1 °F 81% 30.06 in 7.0 mi Calm Calm - N/A   Mostly Cloudy
3:53 AM 55.9 °F 51.1 °F 84% 30.06 in 7.0 mi Calm Calm - N/A   Mostly Cloudy
4:53 AM 54.0 °F 50.0 °F 86% 30.04 in 7.0 mi Calm Calm - N/A   Mostly Cloudy
5:53 AM 55.0 °F 51.1 °F 86% 30.04 in 6.0 mi Calm Calm - N/A   Mostly Cloudy
6:53 AM 55.9 °F 51.1 °F 84% 30.06 in 6.0 mi WSW 4.6 mph - N/A   Haze
7:53 AM 57.0 °F 51.1 °F 81% 30.06 in 5.0 mi NNW 4.6 mph - N/A   Haze
8:53 AM 57.9 °F 52.0 °F 81% 30.08 in 5.0 mi WSW 5.8 mph - N/A   Haze
9:53 AM 59.0 °F 53.1 °F 81% 30.08 in 5.0 mi WSW 5.8 mph - N/A   Haze
10:53 AM 60.1 °F 52.0 °F 75% 30.09 in 5.0 mi West 4.6 mph - N/A   Haze
11:53 AM 62.1 °F 53.1 °F 72% 30.10 in 6.0 mi West 9.2 mph - N/A   Haze
12:53 PM 63.0 °F 53.1 °F 70% 30.09 in 7.0 mi West 10.4 mph - N/A   Mostly Cloudy
1:53 PM 62.1 °F 53.1 °F 72% 30.06 in 8.0 mi West 10.4 mph - N/A   Mostly Cloudy
2:53 PM 62.1 °F 53.1 °F 72% 30.04 in 8.0 mi West 10.4 mph - N/A   Mostly Cloudy
3:53 PM 64.0 °F 52.0 °F 65% 30.02 in 10.0 mi SW 11.5 mph - N/A   Mostly Cloudy
4:53 PM 63.0 °F 53.1 °F 70% 30.01 in 10.0 mi WSW 9.2 mph - N/A   Mostly Cloudy
5:53 PM 61.0 °F 52.0 °F 72% 30.00 in 10.0 mi WSW 12.7 mph - N/A   Mostly Cloudy
6:53 PM 61.0 °F 50.0 °F 67% 29.99 in 10.0 mi West 10.4 mph - N/A   Mostly Cloudy
7:53 PM 60.1 °F 50.0 °F 69% 29.97 in 10.0 mi West 12.7 mph - N/A   Mostly Cloudy
8:53 PM 59.0 °F 50.0 °F 72% 29.98 in 10.0 mi West 11.5 mph - N/A   Scattered Clouds
9:53 PM 59.0 °F 50.0 °F 72% 29.98 in 10.0 mi WSW 11.5 mph - N/A   Mostly Cloudy
10:53 PM 59.0 °F 50.0 °F 72% 29.97 in 10.0 mi SE 4.6 mph - N/A   Overcast
11:53 PM 57.9 °F 50.0 °F 75% 29.96 in 10.0 mi Calm Calm - N/A   Mostly Cloudy